Погода в Гулистане

Узбекистан     41°24′22″N   69°18′41″E
темп.,
°C
ветер,
м/с
пор.,
м/с
влажн.,
%
обл.,
%
осадки,
мм/ч
давл.,
гПа
погр.,
м
1 марта, пн
пн123:00+2всв236150 0.0 102229
02:00+3в2356100 0.0 102125
05:00+2в3354100 0.0 102127
08:00+4в3346100 0.0 102130
11:00+11юв233479 0.0 1020201
14:00+14ююз22220 0.0 1019361
17:00+14юв22280 0.0 101829
20:00+9вюв45430 0.0 102084
2 марта, вт
вт223:00+7вюв33430 0.0 102142
02:00+6ююв014667 0.0 102122
05:00+6в114783 0.0 102222
08:00+7юв1145100 0.0 102322
11:00+10ю2233100 0.0 1023309
14:00+13зюз3332100 0.0 1021648
17:00+13сз2238100 0.0 1022566
20:00+8с4754100 0.0 1024218
3 марта, ср
ср323:00+6ссв345896 0.0 1024124
02:00+5с236497 0.0 102585
05:00+5ссв356598 0.0 1025157
08:00+6юв2667100 0.0 1025258
11:00+9ю355396 0.0 1024514
14:00+12ююз224144 0.0 1022879
17:00+12ююз224264 0.0 10211025
20:00+10в0154100 0.0 102223
4 марта, чт
чт423:00+8ююв236281 0.0 102168
02:00+7в46580 0.0 1020108
05:00+7в34560 0.0 102059
08:00+7вюв33520 0.0 102071
11:00+14ю58410 0.0 1019791
14:00+16ююз463716 0.0 10171744
17:00+16ююз354117 0.0 10161381
20:00+13юз495599 0.9 1018429
5 марта, пт
пт523:00+7сз51078100 2.0 1023644
02:00+3ссз6991100 1.3 1025452
05:00+3всв3580100 5.1 1029461
08:00+4ссз22738 0.0 1033170
11:00+7с33484 0.0 1030647
14:00+10ссв33350 0.0 1026947
17:00+8с56570 0.0 1025396
20:00+5с236513 0.0 102493